Weather reports worldwide

Advertisment
Akron, oh, United States of America (2074227): temperature & dewpoint: 13.05.2019 15:00:00 - 19.05.2019 15:00:00 (EDT)Akron, oh, United States of America (2074227): wind speed & gusts: 13.05.2019 15:00:00 - 19.05.2019 15:00:00 (EDT)Akron, oh, United States of America (2074227): wind direction: 13.05.2019 15:00:00 - 19.05.2019 15:00:00 (EDT)Akron, oh, United States of America (2074227): reduced air pressure: 13.05.2019 15:00:00 - 19.05.2019 15:00:00 (EDT)Akron, oh, United States of America (2074227): visibility: 13.05.2019 15:00:00 - 19.05.2019 15:00:00 (EDT)Akron, oh, United States of America (2074227): precipitation: 13.05.2019 15:00:00 - 19.05.2019 15:00:00 (EDT)
Date & Time tt [°C] td [°C] ff [km/h] ff [kn] fx [km/h] fx [kn] dd ppp [hPa] vv [km] rr [mm]
19.05.2019 15:00:00 29,4 12,8 34 18 59 32 SW 1008,6 16 -
19.05.2019 14:00:00 30,0 13,3 31 17 65 35 SW 1009,2 16 -
19.05.2019 13:00:00 29,4 16,1 34 18 50 27 SW 1010,1 16 -
19.05.2019 12:00:00 28,3 16,1 31 17 - - SW 1010,7 16 -
19.05.2019 11:00:00 27,8 16,7 31 17 - - SSW 1010,9 16 -
19.05.2019 10:00:00 26,7 17,8 18 10 - - SSW 1011,1 16 -
19.05.2019 09:00:00 25,0 17,2 13 7 - - SSW 1011,1 16 -
19.05.2019 08:00:00 23,9 16,7 15 8 - - SSW 1011,0 16 -
19.05.2019 07:00:00 22,2 16,1 16 9 - - S 1011,2 16 -
19.05.2019 06:00:00 21,7 16,1 13 7 - - S 1011,0 16 -
19.05.2019 05:00:00 22,2 16,1 11 6 - - S 1011,2 16 -
19.05.2019 04:00:00 22,8 16,7 13 7 - - S 1011,2 16 -
19.05.2019 03:00:00 23,3 16,7 18 10 - - S 1011,1 16 -
19.05.2019 02:00:00 23,3 16,7 15 8 - - S 1011,5 16 -
19.05.2019 01:00:00 23,3 16,7 16 9 - - S 1011,7 16 -
19.05.2019 00:00:00 23,3 17,2 15 8 - - S 1011,8 16 -
18.05.2019 23:00:00 24,4 16,1 13 7 - - SSE 1011,9 16 -
18.05.2019 22:00:00 25,0 15,6 11 6 - - S 1011,7 16 -
18.05.2019 21:00:00 25,6 15,6 9 5 - - SSW 1011,8 16 -
18.05.2019 20:00:00 26,7 16,1 13 7 - - S 1011,6 16 -
18.05.2019 19:00:00 28,9 16,1 11 6 - - SSW 1011,5 16 -
18.05.2019 18:00:00 28,9 15,0 15 8 - - SW 1011,6 16 -
18.05.2019 17:00:00 27,8 17,2 16 9 - - SSW 1011,8 16 -
18.05.2019 16:00:00 28,3 17,2 13 7 - - W 1012,3 16 -
18.05.2019 15:00:00 27,2 18,3 16 9 - - W 1013,3 16 -
18.05.2019 14:00:00 25,0 18,3 13 7 - - SSW 1013,6 16 -
18.05.2019 13:00:00 24,4 17,8 18 10 - - SW 1013,8 16 -
18.05.2019 12:00:00 21,7 16,1 0 0 - - N 1014,6 16 -
18.05.2019 11:00:00 17,8 13,3 5 3 - - - 1015,3 16 -
18.05.2019 10:00:00 14,4 11,1 0 0 - - N 1015,9 16 -
18.05.2019 09:00:00 12,8 10,0 0 0 - - N 1015,7 16 0,0
18.05.2019 08:00:00 11,7 9,4 9 5 - - SSE 1015,7 2,8 1,5
18.05.2019 07:00:00 12,8 8,9 0 0 - - N 1014,9 16 0,0
18.05.2019 06:00:00 12,8 7,2 0 0 - - N 1014,7 16 0,0
18.05.2019 05:00:00 13,9 6,1 8 4 - - E 1014,0 16 0,0
18.05.2019 04:00:00 13,9 8,9 9 5 - - NE 1013,8 16 -
18.05.2019 03:00:00 14,4 9,4 8 4 - - NE 1013,9 16 -
18.05.2019 02:00:00 14,4 9,4 8 4 - - N 1014,0 16 -
18.05.2019 01:00:00 15,0 9,4 5 3 - - N 1014,0 16 -
18.05.2019 00:00:00 15,6 9,4 9 5 - - N 1014,4 16 -
17.05.2019 23:00:00 16,1 10,6 13 7 - - N 1014,2 16 -
17.05.2019 22:00:00 16,7 11,1 5 3 - - NNW 1013,1 16 -
17.05.2019 21:00:00 16,7 11,7 11 6 - - NNE 1012,3 16 -
17.05.2019 20:00:00 17,2 11,7 15 8 - - N 1012,3 16 0,0
17.05.2019 19:00:00 17,8 13,3 13 7 - - N 1011,8 16 0,0
17.05.2019 18:00:00 19,4 13,3 18 10 - - NNW 1010,8 16 -
17.05.2019 17:00:00 22,8 15,6 18 10 - - N 1010,3 16 -
17.05.2019 16:00:00 24,4 17,2 21 11 - - NW 1010,2 16 -
17.05.2019 15:00:00 23,3 17,2 13 7 - - NNW 1010,4 16 -
17.05.2019 14:00:00 23,3 16,7 15 8 - - NW 1009,6 16 -
17.05.2019 13:00:00 23,3 17,2 13 7 - - W 1009,2 16 -
17.05.2019 12:00:00 21,1 16,7 15 8 - - W 1009,4 16 -
17.05.2019 11:00:00 20,6 16,1 15 8 - - WSW 1008,9 16 -
17.05.2019 10:00:00 20,0 15,6 0 0 - - N 1008,0 16 -
17.05.2019 09:00:00 19,4 15,6 11 6 - - WSW 1008,4 16 0,0
17.05.2019 08:00:00 18,3 15,0 13 7 - - SW 1008,5 16 0,0
17.05.2019 07:00:00 17,8 14,4 11 6 - - SSW 1007,8 16 -
17.05.2019 06:00:00 18,3 13,9 11 6 - - SW 1007,6 16 -
17.05.2019 05:00:00 18,3 13,3 13 7 - - WSW 1006,9 16 -
17.05.2019 04:00:00 18,9 12,8 13 7 - - WSW 1006,4 16 -
17.05.2019 03:00:00 18,9 12,2 16 9 - - SW 1006,1 16 -
17.05.2019 02:00:00 19,4 11,7 18 10 - - SW 1006,8 16 -
17.05.2019 01:00:00 19,4 11,1 21 11 - - SSW 1007,4 16 -
17.05.2019 00:00:00 19,4 10,6 16 9 - - S 1007,9 16 -
16.05.2019 23:00:00 19,4 10,0 16 9 - - S 1008,4 16 -
16.05.2019 22:00:00 20,6 10,0 16 9 - - SSW 1009,3 16 -
16.05.2019 21:00:00 21,7 9,4 16 9 - - SSW 1009,3 16 -
16.05.2019 20:00:00 22,8 9,4 21 11 - - SW 1009,2 16 -
16.05.2019 19:00:00 23,3 11,1 16 9 - - SSW 1009,2 16 -
16.05.2019 18:00:00 24,4 11,1 26 14 - - SW 1009,7 16 -
16.05.2019 17:00:00 24,4 11,1 21 11 - - SW 1009,7 16 -
16.05.2019 16:00:00 23,9 10,6 9 5 - - SW 1010,9 16 -
16.05.2019 15:00:00 23,9 10,0 16 9 - - WSW 1011,9 16 -
16.05.2019 14:00:00 23,3 10,6 18 10 - - W 1012,6 16 -
16.05.2019 13:00:00 23,3 10,0 15 8 - - W 1013,2 16 -
16.05.2019 12:00:00 22,2 7,2 13 7 - - WNW 1013,8 16 -
16.05.2019 11:00:00 20,6 8,3 9 5 - - W 1013,9 16 -
16.05.2019 10:00:00 18,3 9,4 - - - - - 1014,1 16 -
16.05.2019 09:00:00 16,1 9,4 9 5 - - W 1014,2 16 -
16.05.2019 08:00:00 15,0 8,9 8 4 - - WNW 1014,3 16 -
16.05.2019 07:00:00 12,2 8,3 8 4 - - SSW 1014,0 16 -
16.05.2019 06:00:00 12,2 7,8 0 0 - - N 1013,2 16 -
16.05.2019 05:00:00 13,3 7,8 0 0 - - N 1012,8 16 -
16.05.2019 04:00:00 12,8 8,3 9 5 - - W 1011,8 16 -
16.05.2019 03:00:00 13,3 8,3 11 6 - - WSW 1011,8 16 -
16.05.2019 02:00:00 14,4 7,8 15 8 - - W 1012,2 16 -
16.05.2019 01:00:00 16,1 7,8 11 6 - - WSW 1012,0 16 0,0
16.05.2019 00:00:00 16,7 6,7 11 6 - - SW 1012,3 16 -
15.05.2019 23:00:00 16,7 6,7 8 4 - - SSW 1012,6 16 -
15.05.2019 22:00:00 17,8 6,1 11 6 - - SSW 1012,6 16 -
15.05.2019 21:00:00 18,9 5,0 8 4 - - WSW 1012,6 16 -
15.05.2019 20:00:00 18,9 5,0 16 9 - - W 1012,5 16 -
15.05.2019 19:00:00 20,6 5,0 13 7 - - W 1012,5 16 -
15.05.2019 18:00:00 21,1 3,9 22 12 - - WSW 1012,7 16 -
15.05.2019 17:00:00 21,1 3,3 18 10 - - W 1012,6 16 -
15.05.2019 16:00:00 22,2 5,0 16 9 - - W 1013,0 16 -
15.05.2019 15:00:00 21,7 4,4 16 9 - - SW 1013,6 16 -
15.05.2019 14:00:00 20,0 3,3 13 7 - - SW 1014,2 16 -
15.05.2019 13:00:00 20,6 3,9 11 6 - - W 1014,5 16 -
15.05.2019 12:00:00 20,0 5,6 18 10 - - WSW 1015,1 16 -
15.05.2019 11:00:00 19,4 5,6 21 11 - - W 1015,2 16 -
15.05.2019 10:00:00 17,8 5,6 18 10 - - W 1015,5 16 -
15.05.2019 09:00:00 15,0 6,1 15 8 - - W 1015,5 16 -
15.05.2019 08:00:00 12,2 5,6 8 4 - - WSW 1015,2 16 -
15.05.2019 07:00:00 7,2 4,4 0 0 - - N 1015,3 16 -
15.05.2019 06:00:00 6,7 3,3 0 0 - - N 1015,0 16 -
15.05.2019 05:00:00 7,2 3,3 5 3 - - SSW 1014,8 16 -
15.05.2019 04:00:00 6,7 3,3 5 3 - - SSW 1014,8 16 -
15.05.2019 03:00:00 8,3 4,4 0 0 - - N 1014,7 16 -
15.05.2019 02:00:00 9,4 4,4 9 5 - - SW 1014,9 16 -
15.05.2019 01:00:00 10,0 4,4 5 3 - - SW 1015,2 16 -
15.05.2019 00:00:00 8,9 4,4 5 3 - - SSW 1015,2 16 -
14.05.2019 23:00:00 9,4 5,0 0 0 - - N 1015,6 16 -
14.05.2019 22:00:00 10,6 5,6 0 0 - - N 1015,5 16 -
14.05.2019 21:00:00 13,3 3,9 0 0 - - N 1015,4 16 -
14.05.2019 20:00:00 15,0 3,3 9 5 - - NNW 1015,1 16 -
14.05.2019 19:00:00 16,7 2,8 21 11 - - NW 1014,8 16 -
14.05.2019 18:00:00 17,2 2,8 28 15 - - WNW 1015,2 16 -
14.05.2019 17:00:00 16,7 3,3 16 9 - - NNW 1015,3 16 -
14.05.2019 16:00:00 16,1 3,3 24 13 - - N 1015,7 16 -
14.05.2019 15:00:00 15,6 3,3 29 16 - - N 1015,7 16 -
14.05.2019 14:00:00 15,0 3,9 26 14 - - NNW 1015,8 16 -
14.05.2019 13:00:00 14,4 5,0 24 13 - - N 1016,1 16 -
14.05.2019 12:00:00 12,2 4,4 18 10 - - N 1016,1 16 -
14.05.2019 11:00:00 10,6 4,4 26 14 - - NNW 1015,9 16 -
14.05.2019 10:00:00 8,9 5,0 15 8 - - N 1015,7 16 -
14.05.2019 09:00:00 8,3 4,4 16 9 - - NNW 1015,2 16 -
14.05.2019 08:00:00 7,8 3,9 15 8 - - WNW 1014,8 16 -
14.05.2019 07:00:00 7,2 3,3 16 9 - - WNW 1014,2 16 -
14.05.2019 06:00:00 7,2 3,9 13 7 - - WNW 1013,5 16 -
14.05.2019 05:00:00 7,2 3,9 9 5 - - NW 1012,7 16 -
14.05.2019 04:00:00 7,2 3,9 11 6 - - NW 1012,5 16 -
14.05.2019 03:00:00 6,7 4,4 11 6 - - W 1012,3 16 -
14.05.2019 02:00:00 6,7 4,4 11 6 - - W 1012,6 16 -
14.05.2019 01:00:00 7,2 4,4 11 6 - - W 1012,8 16 -
14.05.2019 00:00:00 7,8 5,0 9 5 - - WNW 1013,1 16 -
13.05.2019 23:00:00 7,8 5,0 5 3 - - WNW 1013,0 16 0,0
13.05.2019 22:00:00 8,9 6,1 11 6 - - WNW 1012,6 16 -
13.05.2019 21:00:00 9,4 5,6 9 5 - - WNW 1012,1 16 -
13.05.2019 20:00:00 9,4 6,1 11 6 - - NW 1011,5 16 0,0
13.05.2019 19:00:00 9,4 6,1 15 8 - - NW 1010,9 16 0,0
13.05.2019 18:00:00 9,4 6,1 18 10 - - WNW 1010,5 16 0,0
13.05.2019 17:00:00 10,0 7,2 21 11 - - NW 1010,0 16 0,0
13.05.2019 16:00:00 11,1 7,2 21 11 - - W 1009,4 16 0,0
13.05.2019 15:00:00 10,0 7,8 13 7 - - NNW 1009,1 13 0,0

tt = temperature
td = dewpoint
ff = wind speed
fx = gusts
dd = wind direction
ppp = reduced air pressure
vv = visibility
rr = precipitation

Next stations